User: anonymous   Login
Location: Bangkok
(13.7500°N, 100.5170°E)
Time: 09:24:54
(UTC+07:00)
Language:

SPOT 1/Viking Rocket - Orbit

View from above orbital plane
View from above orbital plane
View from above satellite
View from above satellite

Ground track
Ground track

The orbit data is extracted from the following two-line orbital elements,

1 16615U 86019C   15244.20567142  .00000081  00000-0  47488-4 0  9990
2 16615  98.7007 302.5313 0012140 166.5791 262.2073 14.31511534545781
Epoch (UTC): 01 September 2015 04:56:10
Eccentricity: 0.0012140
inclination: 98.7007°
perigee height: 778 km
apogee height: 795 km
right ascension of ascending node: 302.5313°
argument of perigee: 166.5791°
revolutions per day: 14.31511534
mean anomaly at epoch: 262.2073°
orbit number at epoch: 54578

The dashed part of the orbit path shows where the satellite is in the earth's shadow,  

DLR